Location: Gleizolles
(44.4833°N, 6.7667°E)
Time: 16:25:23
(UTC+00:00)

Altair - Pass Details

Date: 01 July 2024
Orbit: 1502 x 1681 km, 47.2° (Epoch: 13 July)

Event Time Altitude Azimuth Distance (km) Brightness Sun altitude
Rises 21:08:36 0° 202° (SSW) 4,639 9.7 -14.5°
Reaches altitude 10° 21:12:02 10° 193° (SSW) 3,650 9.1 -14.8°
Maximum altitude 21:19:48 32° 134° (SE) 2,343 7.9 -15.6°
Drops below altitude 10° 21:27:35 10° 76° (ENE) 3,675 9.3 -16.3°
Sets 21:31:01 0° 67° (ENE) 4,676 10.0 -16.6°
